• In Hungary
  • List of Countries
  • For 7 days
  • Water Temperature
  • Satellite Maps
  • Weather Map
  • News
  • Weather Widgets
  • user-avatar
    Login

    Hourly Weather Macaresti

    Today, 24 October, Wednesday

    Time Temperature Precipitation Wind Pressure Humidity
    00:00 +11°C° 0.4 mm 6 mps 743 mmHg 61%
    01:00 +11°C° 0.4 mm 7 mps 742 mmHg 61%
    02:00 +10°C° 0.4 mm 7 mps 742 mmHg 61%
    03:00 +10°C° 0.1 mm 7 mps 741 mmHg 60%
    04:00 +10°C° 0.1 mm 7 mps 739 mmHg 58%
    05:00 +10°C° 0.1 mm 7 mps 738 mmHg 57%
    06:00 +10°C° 0 mm 7 mps 738 mmHg 56%
    07:00 +11°C° 0 mm 7 mps 737 mmHg 55%
    08:00 +11°C° 0 mm 6 mps 736 mmHg 55%
    09:00 +11°C° 0.7 mm 7 mps 736 mmHg 58%
    10:00 +11°C° 0.7 mm 7 mps 736 mmHg 61%
    11:00 +10°C° 0.7 mm 7 mps 735 mmHg 64%
    12:00 +10°C° 0.5 mm 7 mps 735 mmHg 58%
    13:00 +10°C° 0.5 mm 7 mps 735 mmHg 53%
    14:00 +10°C° 0.5 mm 7 mps 734 mmHg 48%
    15:00 +10°C° 0.2 mm 7 mps 735 mmHg 50%
    16:00 +9°C° 0.2 mm 8 mps 736 mmHg 53%
    17:00 +7°C° 0.2 mm 8 mps 736 mmHg 56%
    18:00 +6°C° 0 mm 8 mps 737 mmHg 55%
    19:00 +5°C° 0 mm 8 mps 738 mmHg 55%
    20:00 +5°C° 0 mm 8 mps 739 mmHg 54%
    21:00 +4°C° 0 mm 8 mps 739 mmHg 56%
    22:00 +4°C° 0 mm 8 mps 740 mmHg 57%
    23:00 +2°C° 0 mm 8 mps 740 mmHg 59%

    Tomorrow, 25 October, Thursday

    Time Temperature Precipitation Wind Pressure Humidity
    00:00 +3°C° 0 mm 9 mps 740 mmHg 59%
    01:00 +3°C° 0 mm 9 mps 740 mmHg 58%
    02:00 +3°C° 0 mm 9 mps 741 mmHg 58%
    03:00 +3°C° 0.1 mm 10 mps 741 mmHg 59%
    04:00 +5°C° 0.1 mm 10 mps 741 mmHg 60%
    05:00 +5°C° 0.1 mm 10 mps 742 mmHg 61%
    06:00 +5°C° 0.1 mm 10 mps 742 mmHg 61%
    07:00 +5°C° 0.1 mm 10 mps 743 mmHg 60%
    08:00 +5°C° 0.1 mm 10 mps 744 mmHg 59%
    09:00 +5°C° 0 mm 10 mps 744 mmHg 56%
    10:00 +6°C° 0 mm 10 mps 745 mmHg 54%
    11:00 +6°C° 0 mm 10 mps 745 mmHg 51%
    12:00 +7°C° 0 mm 9 mps 745 mmHg 47%
    13:00 +9°C° 0 mm 8 mps 745 mmHg 44%
    14:00 +9°C° 0 mm 8 mps 745 mmHg 40%
    15:00 +9°C° 0 mm 6 mps 745 mmHg 41%
    16:00 +8°C° 0 mm 4 mps 745 mmHg 41%
    17:00 +9°C° 0 mm 3 mps 745 mmHg 41%
    18:00 +8°C° 0.1 mm 3 mps 744 mmHg 45%
    19:00 +8°C° 0.1 mm 3 mps 744 mmHg 49%
    20:00 +7°C° 0.1 mm 4 mps 744 mmHg 52%
    21:00 +7°C° 0.1 mm 4 mps 744 mmHg 55%
    22:00 +7°C° 0.1 mm 5 mps 743 mmHg 58%
    23:00 +7°C° 0.1 mm 5 mps 743 mmHg 61%

    Day after tomorrow, 26 October, Friday

    Time Temperature Precipitation Wind Pressure Humidity
    00:00 +8°C° 0.1 mm 5 mps 743 mmHg 62%
    01:00 +8°C° 0.1 mm 6 mps 743 mmHg 63%
    02:00 +9°C° 0.1 mm 6 mps 744 mmHg 64%
    03:00 +8°C° 0 mm 6 mps 744 mmHg 67%
    04:00 +8°C° 0 mm 5 mps 745 mmHg 69%
    05:00 +7°C° 0 mm 5 mps 745 mmHg 72%
    06:00 +7°C° 0 mm 5 mps 746 mmHg 71%
    07:00 +7°C° 0 mm 5 mps 746 mmHg 71%
    08:00 +7°C° 0 mm 4 mps 747 mmHg 71%
    09:00 +8°C° 0 mm 5 mps 747 mmHg 64%
    10:00 +9°C° 0 mm 5 mps 748 mmHg 57%
    11:00 +11°C° 0 mm 6 mps 748 mmHg 50%
    12:00 +13°C° 0 mm 5 mps 748 mmHg 47%
    13:00 +13°C° 0 mm 5 mps 748 mmHg 44%
    14:00 +14°C° 0 mm 4 mps 748 mmHg 41%
    15:00 +13°C° 0 mm 3 mps 749 mmHg 44%
    16:00 +14°C° 0 mm 2 mps 749 mmHg 47%
    17:00 +13°C° 0 mm 1 mps 749 mmHg 49%
    18:00 +12°C° 0 mm 1 mps 749 mmHg 52%
    19:00 +11°C° 0 mm 1 mps 749 mmHg 54%
    20:00 +11°C° 0 mm 1 mps 750 mmHg 57%
    21:00 +10°C° 0 mm 2 mps 750 mmHg 59%
    22:00 +9°C° 0 mm 2 mps 750 mmHg 61%
    23:00 +9°C° 0 mm 2 mps 750 mmHg 64%

    27 October, Saturday

    Time Temperature Precipitation Wind Pressure Humidity
    00:00 +9°C° 0 mm 2 mps 750 mmHg 66%
    01:00 +9°C° 0 mm 2 mps 749 mmHg 68%
    02:00 +8°C° 0 mm 2 mps 749 mmHg 71%
    03:00 +8°C° 0 mm 3 mps 749 mmHg 70%
    04:00 +9°C° 0 mm 3 mps 749 mmHg 70%
    05:00 +9°C° 0 mm 3 mps 748 mmHg 70%
    06:00 +9°C° 0 mm 3 mps 748 mmHg 67%
    07:00 +10°C° 0 mm 3 mps 748 mmHg 65%
    08:00 +11°C° 0 mm 3 mps 748 mmHg 63%
    09:00 +12°C° 0.1 mm 3 mps 748 mmHg 60%
    10:00 +14°C° 0.1 mm 3 mps 748 mmHg 57%
    11:00 +16°C° 0.1 mm 3 mps 747 mmHg 54%
    12:00 +17°C° 0.1 mm 3 mps 747 mmHg 51%
    13:00 +19°C° 0.1 mm 4 mps 747 mmHg 48%
    14:00 +20°C° 0.1 mm 4 mps 747 mmHg 45%
    15:00 +19°C° 0 mm 3 mps 747 mmHg 50%
    16:00 +18°C° 0 mm 3 mps 747 mmHg 55%
    17:00 +17°C° 0 mm 2 mps 747 mmHg 60%
    18:00 +16°C° 0 mm 2 mps 747 mmHg 65%
    19:00 +15°C° 0 mm 1 mps 748 mmHg 70%
    20:00 +14°C° 0 mm 1 mps 748 mmHg 75%
    21:00 +14°C° 0 mm 1 mps 748 mmHg 77%
    22:00 +13°C° 0 mm 1 mps 749 mmHg 79%
    23:00 +13°C° 0 mm 1 mps 749 mmHg 81%

    28 October, Sunday

    Time Temperature Precipitation Wind Pressure Humidity
    00:00 +13°C° 0 mm 1 mps 749 mmHg 82%
    01:00 +12°C° 0 mm 1 mps 749 mmHg 84%
    02:00 +12°C° 0 mm 1 mps 749 mmHg 85%
    03:00 +12°C° 0 mm 1 mps 750 mmHg 86%
    04:00 +11°C° 0 mm 1 mps 750 mmHg 87%
    05:00 +11°C° 0 mm 1 mps 750 mmHg 88%
    06:00 +12°C° 0 mm 1 mps 750 mmHg 86%
    07:00 +12°C° 0 mm 1 mps 750 mmHg 83%
    08:00 +13°C° 0 mm 1 mps 750 mmHg 81%
    09:00 +15°C° 0 mm 1 mps 750 mmHg 72%
    10:00 +18°C° 0 mm 1 mps 751 mmHg 63%
    11:00 +19°C° 0 mm 2 mps 751 mmHg 54%
    12:00 +21°C° 0 mm 2 mps 750 mmHg 49%
    13:00 +23°C° 0 mm 2 mps 750 mmHg 45%
    14:00 +25°C° 0 mm 3 mps 750 mmHg 41%
    15:00 +23°C° 0 mm 2 mps 750 mmHg 43%
    16:00 +21°C° 0 mm 2 mps 750 mmHg 46%
    17:00 +20°C° 0 mm 2 mps 750 mmHg 49%
    18:00 +19°C° 0 mm 3 mps 750 mmHg 50%
    19:00 +19°C° 0 mm 3 mps 750 mmHg 52%
    20:00 +18°C° 0 mm 3 mps 750 mmHg 53%
    21:00 +18°C° 0 mm 3 mps 750 mmHg 55%
    22:00 +17°C° 0 mm 3 mps 750 mmHg 57%
    23:00 +17°C° 0 mm 4 mps 750 mmHg 59%

    29 October, Monday

    Time Temperature Precipitation Wind Pressure Humidity
    00:00 +16°C° 0 mm 3 mps 750 mmHg 63%
    01:00 +16°C° 0 mm 3 mps 750 mmHg 68%
    02:00 +14°C° 0 mm 3 mps 750 mmHg 72%
    03:00 +14°C° 0 mm 3 mps 750 mmHg 76%
    04:00 +13°C° 0 mm 3 mps 750 mmHg 81%
    05:00 +13°C° 0 mm 3 mps 750 mmHg 85%
    06:00 +13°C° 0 mm 3 mps 749 mmHg 86%
    07:00 +13°C° 0 mm 3 mps 749 mmHg 87%
    08:00 +13°C° 0 mm 3 mps 749 mmHg 89%
    09:00 +16°C° 0 mm 3 mps 749 mmHg 80%
    10:00 +18°C° 0 mm 4 mps 749 mmHg 71%
    11:00 +20°C° 0 mm 4 mps 749 mmHg 63%
    12:00 +21°C° 0 mm 5 mps 749 mmHg 57%
    13:00 +22°C° 0 mm 5 mps 748 mmHg 52%
    14:00 +23°C° 0 mm 5 mps 748 mmHg 47%
    15:00 +22°C° 0 mm 5 mps 748 mmHg 48%
    16:00 +21°C° 0 mm 4 mps 748 mmHg 50%
    17:00 +21°C° 0 mm 3 mps 748 mmHg 52%
    18:00 +20°C° 0 mm 3 mps 748 mmHg 52%
    19:00 +19°C° 0 mm 3 mps 748 mmHg 53%
    20:00 +19°C° 0 mm 3 mps 748 mmHg 54%
    21:00 +18°C° 0 mm 3 mps 748 mmHg 54%
    22:00 +18°C° 0 mm 2 mps 749 mmHg 54%
    23:00 +18°C° 0 mm 1 mps 749 mmHg 54%
    Show more